This demonstration page uses our WeatherBlox Daily Observations layout. Learn more.

Left ArrowRight Arrow

Hourly Observations for October 20, 2018

Temp ( °F °C ) Dew Point ( °F °C ) Humidity (%) Winds ( mph kmh ) Pressure ( in mb ) Visibility ( mi km ) Precip ( " mm )
12:57 am 00:57 Clear 42 5.6 32 0 68 68 WNW 8 13 30.26 1025 10 16 0.00 0.00
1:57 am 01:57 Clear 40 4.4 32 0 73 73 WNW 9 15 30.27 1025 10 16 0.00 0.00
2:57 am 02:57 Clear 40 4.4 32 0 73 73 WNW 8 13 30.27 1025 10 16 0.00 0.00
3:57 am 03:57 Clear 38 3.3 31 -0.6 76 76 NW 7 11 30.28 1026 10 16 0.00 0.00
4:57 am 04:57 Clear 38 3.3 31 -0.6 76 76 NW 7 11 30.30 1026 10 16 0.00 0.00
5:57 am 05:57 Clear 38 3.3 31 -0.6 76 76 NW 8 13 30.32 1027 10 16 0.00 0.00
6:57 am 06:57 Clear 37 2.8 30 -1.1 76 76 WNW 8 13 30.35 1028 10 16 0.00 0.00
7:57 am 07:57 Sunny 37 2.8 30 -1.1 76 76 NW 9 15 30.37 1028 10 16 0.00 0.00
8:57 am 08:57 Sunny 40 4.4 31 -0.6 70 70 NW 9 15 30.39 1029 10 16 0.00 0.00
9:57 am 09:57 Sunny 49 9.4 32 0 52 52 N 13 20 30.40 1029 10 16 0.00 0.00
10:57 am 10:57 Sunny 54 12.2 31 -0.6 42 42 NNW 12 19 30.41 1030 10 16 0.00 0.00
11:57 am 11:57 Sunny 58 14.4 29 -1.7 33 33 N 18 30 30.40 1030 10 16 0.00 0.00
12:57 pm 12:57 Sunny 59 15 30 -1.1 33 33 N 18 30 30.39 1029 10 16 0.00 0.00
1:57 pm 13:57 Sunny 61 16.1 30 -1.1 31 31 N 14 22 30.37 1029 10 16 0.00 0.00
2:57 pm 14:57 Sunny 61 16.1 30 -1.1 31 31 N 10 17 30.36 1028 10 16 0.00 0.00
3:57 pm 15:57 Sunny 62 16.7 29 -1.7 29 29 N 10 17 30.36 1028 10 16 0.00 0.00
4:57 pm 16:57 Sunny 61 16.1 29 -1.7 30 30 NNE 8 13 30.35 1028 10 16 0.00 0.00
5:57 pm 17:57 Sunny 59 15 31 -0.6 35 35 NE 8 13 30.35 1028 10 16 0.00 0.00
6:57 pm 18:57 Clear 48 8.9 29 -1.7 48 48 E 8 13 30.37 1028 10 16 0.00 0.00
7:57 pm 19:57 Clear 46 7.8 28 -2.2 50 50 E 8 13 30.38 1029 10 16 0.00 0.00
8:57 pm 20:57 Clear 42 5.6 28 -2.2 58 58 E 7 11 30.37 1029 10 16 0.00 0.00
9:57 pm 21:57 Clear 40 4.4 29 -1.7 65 65 SE 7 11 30.36 1028 10 16 0.00 0.00
10:57 pm 22:57 Clear 39 3.9 28 -2.2 65 65 SE 8 13 30.35 1028 10 16 0.00 0.00
11:57 pm 23:57 Clear 39 3.9 27 -2.8 62 62 SSE 8 13 30.34 1027 10 16 0.00 0.00

Powered by AerisWeather